Station Historical Data
Daily Summary for April 25, 2012 Units:  English    Metric   Both
« Previous Day
Next Day »
Daily Weekly Monthly Yearly Custom
  High: Low: Average:
Temperature: 80.2 °F 53.2 °F 66.9 °F
Dew Point: 65.0 °F 46.3 °F 55.7 °F
Humidity: 80% 56% 68%
Wind Speed: 16.0mph 0.0mph 5.5mph
Wind Gust: 21.0mph - -
Wind- - SSW
Pressure: 29.85 in 29.73 in -
Precipitation: 0.00 in    
Historical Graphs
 
 
Tabular Data for April 25, 2012
Time Temperature Dew Point Pressure Wind Wind Speed Wind Gust Humidity Rainfall Rate (Hourly) Conditions
00:00 59.8 °F 47.2 °F 29.82 in South 2.0 mph 5.0 mph 63% 0.00 in
00:01 59.7 °F 47.1 °F 29.82 in SSW 4.0 mph 4.0 mph 63% 0.00 in
00:06 59.5 °F 46.9 °F 29.82 in SSW 2.0 mph 6.0 mph 63% 0.00 in
00:11 59.1 °F 47.0 °F 29.82 in SW 5.0 mph 7.0 mph 64% 0.00 in
00:16 58.9 °F 47.2 °F 29.82 in South 5.0 mph 6.0 mph 65% 0.00 in
00:21 58.7 °F 47.0 °F 29.82 in SW 4.0 mph 5.0 mph 65% 0.00 in
00:26 58.6 °F 46.9 °F 29.82 in SSE 4.0 mph 7.0 mph 65% 0.00 in
00:31 58.6 °F 47.3 °F 29.82 in South 4.0 mph 6.0 mph 66% 0.00 in
00:36 58.5 °F 47.2 °F 29.82 in SSW 4.0 mph 8.0 mph 66% 0.00 in
00:41 58.4 °F 47.1 °F 29.82 in SSW 3.0 mph 5.0 mph 66% 0.00 in
00:46 58.2 °F 47.3 °F 29.82 in SSE 2.0 mph 4.0 mph 67% 0.00 in
00:51 58.0 °F 47.1 °F 29.82 in SSW 2.0 mph 4.0 mph 67% 0.00 in
00:56 57.8 °F 46.9 °F 29.82 in SE 3.0 mph 3.0 mph 67% 0.00 in
01:01 57.7 °F 46.8 °F 29.82 in SSE 4.0 mph 6.0 mph 67% 0.00 in
01:06 57.7 °F 47.2 °F 29.82 in SE 3.0 mph 4.0 mph 68% 0.00 in
01:11 57.5 °F 47.0 °F 29.82 in SSE 2.0 mph 4.0 mph 68% 0.00 in
01:16 57.3 °F 46.8 °F 29.82 in South 4.0 mph 5.0 mph 68% 0.00 in
01:21 57.2 °F 46.8 °F 29.82 in SSE 3.0 mph 4.0 mph 68% 0.00 in
01:26 57.0 °F 46.9 °F 29.81 in SSE 3.0 mph 4.0 mph 69% 0.00 in
01:32 56.8 °F 46.8 °F 29.82 in South 1.0 mph 3.0 mph 69% 0.00 in
01:37 56.6 °F 46.9 °F 29.82 in SSE 1.0 mph 2.0 mph 70% 0.00 in
01:42 56.3 °F 46.7 °F 29.82 in SE 1.0 mph 1.0 mph 70% 0.00 in
01:47 55.7 °F 46.8 °F 29.82 in SE 1.0 mph 1.0 mph 72% 0.00 in
01:52 55.5 °F 46.6 °F 29.82 in ESE 2.0 mph 2.0 mph 72% 0.00 in
01:57 55.3 °F 46.8 °F 29.82 in ESE 2.0 mph 3.0 mph 73% 0.00 in
02:02 54.6 °F 46.5 °F 29.82 in SE 2.0 mph 2.0 mph 74% 0.00 in
02:07 54.3 °F 46.6 °F 29.82 in SE 1.0 mph 2.0 mph 75% 0.00 in
02:12 53.9 °F 46.5 °F 29.82 in SE 1.0 mph 1.0 mph 76% 0.00 in
02:17 53.8 °F 46.4 °F 29.82 in SE 1.0 mph 1.0 mph 76% 0.00 in
02:22 53.6 °F 46.6 °F 29.82 in SE 1.0 mph 1.0 mph 77% 0.00 in
02:27 53.4 °F 46.4 °F 29.82 in SE 1.0 mph 2.0 mph 77% 0.00 in
02:32 53.4 °F 46.4 °F 29.82 in SE 2.0 mph 2.0 mph 77% 0.00 in
02:37 53.4 °F 46.4 °F 29.82 in SSE 1.0 mph 2.0 mph 77% 0.00 in
02:42 53.3 °F 46.6 °F 29.82 in SE 1.0 mph 2.0 mph 78% 0.00 in
02:47 53.3 °F 46.3 °F 29.82 in SSE 2.0 mph 2.0 mph 77% 0.00 in
02:52 53.3 °F 46.6 °F 29.82 in SSE 1.0 mph 2.0 mph 78% 0.00 in
02:57 53.3 °F 46.3 °F 29.82 in SSE 1.0 mph 2.0 mph 77% 0.00 in
03:02 53.3 °F 46.6 °F 29.81 in SE 2.0 mph 2.0 mph 78% 0.00 in
03:07 53.2 °F 46.5 °F 29.81 in South 2.0 mph 2.0 mph 78% 0.00 in
03:13 53.3 °F 46.6 °F 29.81 in SSE 1.0 mph 3.0 mph 78% 0.00 in
03:18 53.2 °F 46.5 °F 29.81 in SSE 2.0 mph 3.0 mph 78% 0.00 in
03:23 53.2 °F 46.5 °F 29.81 in SSE 2.0 mph 2.0 mph 78% 0.00 in
03:28 53.3 °F 46.6 °F 29.81 in SSE 2.0 mph 3.0 mph 78% 0.00 in
03:33 53.4 °F 46.4 °F 29.81 in South 2.0 mph 4.0 mph 77% 0.00 in
03:38 53.6 °F 46.6 °F 29.81 in SSE 3.0 mph 4.0 mph 77% 0.00 in
03:43 53.8 °F 46.8 °F 29.81 in SSE 3.0 mph 3.0 mph 77% 0.00 in
03:48 54.0 °F 46.6 °F 29.81 in SSE 4.0 mph 4.0 mph 76% 0.00 in
03:53 54.6 °F 47.2 °F 29.81 in SSE 3.0 mph 5.0 mph 76% 0.00 in
03:58 55.0 °F 47.2 °F 29.81 in South 2.0 mph 5.0 mph 75% 0.00 in
04:03 55.3 °F 47.2 °F 29.81 in SSE 3.0 mph 6.0 mph 74% 0.00 in
04:08 55.7 °F 47.5 °F 29.81 in South 3.0 mph 4.0 mph 74% 0.00 in
04:13 55.9 °F 47.4 °F 29.81 in SSE 5.0 mph 7.0 mph 73% 0.00 in
04:18 56.2 °F 47.7 °F 29.81 in South 4.0 mph 6.0 mph 73% 0.00 in
04:23 56.3 °F 47.8 °F 29.81 in SSW 6.0 mph 8.0 mph 73% 0.00 in
04:28 56.4 °F 47.9 °F 29.81 in South 1.0 mph 7.0 mph 73% 0.00 in
04:33 56.4 °F 47.9 °F 29.81 in SW 2.0 mph 7.0 mph 73% 0.00 in
04:38 56.4 °F 47.9 °F 29.80 in SSW 3.0 mph 6.0 mph 73% 0.00 in
04:43 56.3 °F 48.1 °F 29.80 in SSE 2.0 mph 4.0 mph 74% 0.00 in
04:48 56.5 °F 48.0 °F 29.80 in SSW 3.0 mph 5.0 mph 73% 0.00 in
04:53 56.5 °F 48.0 °F 29.80 in SW 4.0 mph 6.0 mph 73% 0.00 in
04:58 56.3 °F 48.1 °F 29.80 in SW 2.0 mph 4.0 mph 74% 0.00 in
05:03 56.2 °F 48.0 °F 29.80 in SW 3.0 mph 6.0 mph 74% 0.00 in
05:08 56.2 °F 48.0 °F 29.80 in SSE 2.0 mph 7.0 mph 74% 0.00 in
05:13 56.0 °F 48.2 °F 29.80 in South 3.0 mph 4.0 mph 75% 0.00 in
05:18 55.9 °F 48.1 °F 29.80 in SSW 2.0 mph 3.0 mph 75% 0.00 in
05:23 55.9 °F 48.1 °F 29.80 in SSW 2.0 mph 5.0 mph 75% 0.00 in
05:28 55.8 °F 48.0 °F 29.80 in SW 4.0 mph 4.0 mph 75% 0.00 in
05:33 55.7 °F 48.3 °F 29.80 in SW 1.0 mph 4.0 mph 76% 0.00 in
05:38 55.6 °F 48.2 °F 29.80 in South 3.0 mph 4.0 mph 76% 0.00 in
05:43 55.4 °F 48.3 °F 29.81 in Calm   3.0 mph 77% 0.00 in
05:49 55.3 °F 48.2 °F 29.80 in SSW 2.0 mph 3.0 mph 77% 0.00 in
05:54 55.4 °F 48.3 °F 29.81 in South 2.0 mph 4.0 mph 77% 0.00 in
05:55 55.4 °F 48.3 °F 29.81 in SSE 2.0 mph 4.0 mph 77% 0.00 in
06:00 55.3 °F 48.2 °F 29.81 in South 2.0 mph 3.0 mph 77% 0.00 in
06:05 55.4 °F 48.3 °F 29.81 in SSW 1.0 mph 4.0 mph 77% 0.00 in
06:10 55.3 °F 48.2 °F 29.81 in SSW 2.0 mph 4.0 mph 77% 0.00 in
06:15 55.3 °F 48.6 °F 29.81 in SSW 1.0 mph 4.0 mph 78% 0.00 in
06:16 55.3 °F 48.6 °F 29.81 in South 3.0 mph 4.0 mph 78% 0.00 in
06:21 55.2 °F 48.5 °F 29.81 in South 2.0 mph 3.0 mph 78% 0.00 in
06:26 55.2 °F 48.5 °F 29.81 in SW 4.0 mph 5.0 mph 78% 0.00 in
06:31 55.3 °F 48.6 °F 29.81 in South 3.0 mph 4.0 mph 78% 0.00 in
06:36 55.3 °F 48.6 °F 29.81 in SSW 6.0 mph 6.0 mph 78% 0.00 in
06:41 55.5 °F 48.8 °F 29.81 in SSW 2.0 mph 6.0 mph 78% 0.00 in
06:46 55.5 °F 48.8 °F 29.81 in SSW 1.0 mph 4.0 mph 78% 0.00 in
06:51 55.4 °F 48.7 °F 29.82 in Calm   5.0 mph 78% 0.00 in
06:56 55.4 °F 48.7 °F 29.82 in South 3.0 mph 4.0 mph 78% 0.00 in
07:01 55.3 °F 48.9 °F 29.82 in South 3.0 mph 3.0 mph 79% 0.00 in
07:06 55.1 °F 48.7 °F 29.82 in SW 3.0 mph 4.0 mph 79% 0.00 in
07:11 55.0 °F 49.0 °F 29.82 in SSW 2.0 mph 6.0 mph 80% 0.00 in
07:16 55.0 °F 49.0 °F 29.83 in SW 2.0 mph 5.0 mph 80% 0.00 in
07:21 54.9 °F 48.9 °F 29.83 in SW 3.0 mph 4.0 mph 80% 0.00 in
07:26 54.9 °F 48.9 °F 29.83 in WSW 3.0 mph 6.0 mph 80% 0.00 in
07:31 55.1 °F 49.0 °F 29.83 in SW 4.0 mph 6.0 mph 80% 0.00 in
07:36 55.3 °F 49.2 °F 29.83 in SW 6.0 mph 7.0 mph 80% 0.00 in
07:41 55.5 °F 49.4 °F 29.83 in SW 6.0 mph 6.0 mph 80% 0.00 in
07:46 55.8 °F 49.7 °F 29.83 in SW 3.0 mph 7.0 mph 80% 0.00 in
07:51 56.1 °F 49.7 °F 29.83 in SW 5.0 mph 8.0 mph 79% 0.00 in
07:56 56.6 °F 50.2 °F 29.83 in SW 5.0 mph 7.0 mph 79% 0.00 in
08:01 56.9 °F 50.1 °F 29.83 in WSW 5.0 mph 8.0 mph 78% 0.00 in
08:07 57.1 °F 50.3 °F 29.84 in SW 4.0 mph 9.0 mph 78% 0.00 in
08:12 57.4 °F 50.6 °F 29.84 in WSW 8.0 mph 8.0 mph 78% 0.00 in
08:17 57.7 °F 50.9 °F 29.84 in SW 6.0 mph 7.0 mph 78% 0.00 in
08:22 57.9 °F 51.1 °F 29.84 in SW 5.0 mph 9.0 mph 78% 0.00 in
08:27 58.3 °F 51.1 °F 29.84 in SW 6.0 mph 8.0 mph 77% 0.00 in
08:32 58.7 °F 51.9 °F 29.84 in SW 6.0 mph 9.0 mph 78% 0.00 in
08:37 59.0 °F 51.8 °F 29.84 in SW 7.0 mph 11.0 mph 77% 0.00 in
08:42 59.4 °F 52.2 °F 29.84 in SW 6.0 mph 8.0 mph 77% 0.00 in
08:47 59.8 °F 52.6 °F 29.84 in SW 7.0 mph 9.0 mph 77% 0.00 in
08:52 60.2 °F 52.6 °F 29.84 in SW 8.0 mph 9.0 mph 76% 0.00 in
08:57 60.5 °F 52.9 °F 29.85 in SW 8.0 mph 11.0 mph 76% 0.00 in
09:02 60.9 °F 53.3 °F 29.84 in SW 6.0 mph 10.0 mph 76% 0.00 in
09:07 61.5 °F 53.5 °F 29.84 in SW 9.0 mph 10.0 mph 75% 0.00 in
09:12 61.9 °F 53.9 °F 29.85 in WSW 12.0 mph 12.0 mph 75% 0.00 in
09:17 62.2 °F 53.8 °F 29.85 in SW 8.0 mph 11.0 mph 74% 0.00 in
09:22 62.4 °F 54.0 °F 29.85 in West 5.0 mph 11.0 mph 74% 0.00 in
09:27 62.9 °F 54.5 °F 29.85 in WSW 7.0 mph 11.0 mph 74% 0.00 in
09:32 63.3 °F 54.9 °F 29.85 in SSW 6.0 mph 11.0 mph 74% 0.00 in
09:37 63.7 °F 54.9 °F 29.85 in SW 9.0 mph 10.0 mph 73% 0.00 in
09:42 63.7 °F 54.5 °F 29.85 in SW 12.0 mph 12.0 mph 72% 0.00 in
09:47 64.0 °F 55.6 °F 29.85 in WSW 4.0 mph 11.0 mph 74% 0.00 in
09:52 64.3 °F 55.1 °F 29.85 in SSW 14.0 mph 14.0 mph 72% 0.00 in
09:57 64.5 °F 55.7 °F 29.85 in WSW 7.0 mph 13.0 mph 73% 0.00 in
10:02 65.0 °F 56.5 °F 29.85 in WSW 4.0 mph 12.0 mph 74% 0.00 in
10:07 65.4 °F 56.5 °F 29.85 in SW 10.0 mph 15.0 mph 73% 0.00 in
10:12 65.6 °F 56.3 °F 29.85 in SW 10.0 mph 12.0 mph 72% 0.00 in
10:17 65.7 °F 56.8 °F 29.85 in WSW 7.0 mph 13.0 mph 73% 0.00 in
10:22 66.2 °F 57.3 °F 29.85 in West 3.0 mph 12.0 mph 73% 0.00 in
10:27 66.7 °F 57.4 °F 29.85 in SW 10.0 mph 12.0 mph 72% 0.00 in
10:32 66.8 °F 57.5 °F 29.85 in SW 11.0 mph 11.0 mph 72% 0.00 in
10:37 66.8 °F 57.1 °F 29.84 in SW 6.0 mph 13.0 mph 71% 0.00 in
10:43 67.1 °F 57.8 °F 29.84 in West 7.0 mph 11.0 mph 72% 0.00 in
10:48 67.4 °F 57.3 °F 29.84 in SW 11.0 mph 17.0 mph 70% 0.00 in
10:53 67.6 °F 58.7 °F 29.84 in WSW 10.0 mph 13.0 mph 73% 0.00 in
10:58 68.0 °F 58.3 °F 29.84 in SSW 7.0 mph 13.0 mph 71% 0.00 in
11:03 68.3 °F 58.5 °F 29.84 in SSW 10.0 mph 13.0 mph 71% 0.00 in
11:08 68.5 °F 58.3 °F 29.85 in WSW 9.0 mph 13.0 mph 70% 0.00 in
11:14 68.9 °F 59.5 °F 29.84 in SSW 10.0 mph 10.0 mph 72% 0.00 in
11:19 69.1 °F 59.3 °F 29.84 in WSW 7.0 mph 15.0 mph 71% 0.00 in
11:24 69.2 °F 59.4 °F 29.84 in SW 10.0 mph 11.0 mph 71% 0.00 in
11:29 69.3 °F 59.1 °F 29.84 in WSW 8.0 mph 13.0 mph 70% 0.00 in
11:34 69.7 °F 60.7 °F 29.84 in SW 11.0 mph 14.0 mph 73% 0.00 in
11:39 70.0 °F 60.2 °F 29.84 in SSW 5.0 mph 11.0 mph 71% 0.00 in
11:45 70.6 °F 60.3 °F 29.84 in SW 6.0 mph 12.0 mph 70% 0.00 in
11:50 70.9 °F 60.2 °F 29.84 in WSW 8.0 mph 9.0 mph 69% 0.00 in
11:55 71.1 °F 60.0 °F 29.83 in SSW 8.0 mph 13.0 mph 68% 0.00 in
12:00 71.1 °F 60.8 °F 29.83 in SW 8.0 mph 12.0 mph 70% 0.00 in
12:05 71.3 °F 60.6 °F 29.84 in SW 11.0 mph 11.0 mph 69% 0.00 in
12:11 71.6 °F 61.3 °F 29.84 in SW 8.0 mph 10.0 mph 70% 0.00 in
12:16 71.7 °F 60.6 °F 29.84 in SW 9.0 mph 13.0 mph 68% 0.00 in
12:21 72.0 °F 60.9 °F 29.83 in West 5.0 mph 10.0 mph 68% 0.00 in
12:26 72.3 °F 61.2 °F 29.83 in SW 5.0 mph 10.0 mph 68% 0.00 in
12:31 72.5 °F 60.9 °F 29.82 in South 8.0 mph 12.0 mph 67% 0.00 in
12:36 72.9 °F 61.3 °F 29.82 in SSE 7.0 mph 10.0 mph 67% 0.00 in
12:41 72.9 °F 61.3 °F 29.82 in SSW 6.0 mph 10.0 mph 67% 0.00 in
12:46 72.9 °F 60.9 °F 29.82 in SSW 6.0 mph 13.0 mph 66% 0.00 in
12:51 73.3 °F 61.7 °F 29.81 in SSW 5.0 mph 10.0 mph 67% 0.00 in
12:56 73.6 °F 62.0 °F 29.81 in SW 7.0 mph 11.0 mph 67% 0.00 in
13:01 73.9 °F 61.8 °F 29.81 in SSE 11.0 mph 16.0 mph 66% 0.00 in
13:07 74.1 °F 62.0 °F 29.80 in SSE 7.0 mph 10.0 mph 66% 0.00 in
13:12 74.5 °F 62.0 °F 29.80 in SE 7.0 mph 9.0 mph 65% 0.00 in
13:17 74.5 °F 62.0 °F 29.80 in SSE 6.0 mph 11.0 mph 65% 0.00 in
13:22 74.5 °F 62.0 °F 29.80 in SSE 5.0 mph 14.0 mph 65% 0.00 in
13:27 75.1 °F 63.4 °F 29.81 in South 9.0 mph 16.0 mph 67% 0.00 in
13:32 75.4 °F 64.1 °F 29.80 in SSE 11.0 mph 11.0 mph 68% 0.00 in
13:37 75.6 °F 61.7 °F 29.80 in South 14.0 mph 15.0 mph 62% 0.00 in
13:42 75.4 °F 62.4 °F 29.80 in South 7.0 mph 16.0 mph 64% 0.00 in
13:47 75.5 °F 62.9 °F 29.79 in SW 4.0 mph 9.0 mph 65% 0.00 in
13:52 76.1 °F 63.0 °F 29.79 in East 1.0 mph 9.0 mph 64% 0.00 in
13:57 76.2 °F 63.6 °F 29.79 in SSE 5.0 mph 15.0 mph 65% 0.00 in
14:02 76.1 °F 63.0 °F 29.80 in South 11.0 mph 14.0 mph 64% 0.00 in
14:07 76.6 °F 63.1 °F 29.79 in SE 9.0 mph 12.0 mph 63% 0.00 in
14:12 76.6 °F 62.6 °F 29.80 in SW 7.0 mph 14.0 mph 62% 0.00 in
14:17 77.0 °F 63.5 °F 29.79 in SSW 7.0 mph 12.0 mph 63% 0.00 in
14:22 76.9 °F 62.9 °F 29.79 in SW 11.0 mph 15.0 mph 62% 0.00 in
14:27 77.1 °F 63.5 °F 29.78 in SSW 6.0 mph 9.0 mph 63% 0.00 in
14:32 77.7 °F 64.6 °F 29.79 in SE 10.0 mph 21.0 mph 64% 0.00 in
14:37 77.9 °F 63.8 °F 29.79 in South 16.0 mph 16.0 mph 62% 0.00 in
14:42 78.2 °F 63.7 °F 29.78 in SSW 5.0 mph 10.0 mph 61% 0.00 in
14:48 78.3 °F 64.2 °F 29.78 in SW 5.0 mph 12.0 mph 62% 0.00 in
14:53 78.3 °F 64.2 °F 29.79 in SSW 6.0 mph 14.0 mph 62% 0.00 in
14:58 78.9 °F 64.8 °F 29.79 in SW 7.0 mph 14.0 mph 62% 0.00 in
15:03 79.3 °F 63.7 °F 29.78 in SSW 4.0 mph 11.0 mph 59% 0.00 in
15:08 79.1 °F 65.0 °F 29.78 in SSW 3.0 mph 14.0 mph 62% 0.00 in
15:13 79.5 °F 63.9 °F 29.78 in South 9.0 mph 14.0 mph 59% 0.00 in
15:18 79.5 °F 64.4 °F 29.78 in SE 5.0 mph 12.0 mph 60% 0.00 in
15:23 79.6 °F 64.0 °F 29.77 in SW 10.0 mph 13.0 mph 59% 0.00 in
15:28 79.6 °F 64.0 °F 29.77 in South 8.0 mph 13.0 mph 59% 0.00 in
15:33 79.6 °F 64.0 °F 29.77 in SSW 7.0 mph 14.0 mph 59% 0.00 in
15:38 80.0 °F 63.9 °F 29.77 in SSW 8.0 mph 14.0 mph 58% 0.00 in
15:43 79.9 °F 64.3 °F 29.77 in SW 9.0 mph 16.0 mph 59% 0.00 in
15:48 80.2 °F 63.6 °F 29.77 in WSW 11.0 mph 14.0 mph 57% 0.00 in
15:53 80.1 °F 63.5 °F 29.77 in SW 11.0 mph 19.0 mph 57% 0.00 in
15:58 80.1 °F 63.0 °F 29.78 in WSW 9.0 mph 14.0 mph 56% 0.00 in
16:03 80.0 °F 63.4 °F 29.78 in WSW 9.0 mph 16.0 mph 57% 0.00 in
16:08 79.3 °F 62.3 °F 29.78 in SSW 11.0 mph 16.0 mph 56% 0.00 in
16:13 78.7 °F 62.2 °F 29.79 in SW 6.0 mph 15.0 mph 57% 0.00 in
16:18 78.6 °F 63.6 °F 29.79 in SW 7.0 mph 11.0 mph 60% 0.00 in
16:23 78.9 °F 64.3 °F 29.79 in SW 9.0 mph 17.0 mph 61% 0.00 in
16:28 79.1 °F 63.6 °F 29.79 in West 7.0 mph 13.0 mph 59% 0.00 in
16:33 78.8 °F 62.8 °F 29.79 in WSW 10.0 mph 17.0 mph 58% 0.00 in
16:38 78.5 °F 63.5 °F 29.78 in West 9.0 mph 17.0 mph 60% 0.00 in
16:43 78.1 °F 62.6 °F 29.78 in SW 10.0 mph 13.0 mph 59% 0.00 in
16:48 77.9 °F 62.9 °F 29.78 in WSW 5.0 mph 13.0 mph 60% 0.00 in
16:53 77.7 °F 62.7 °F 29.78 in SSW 9.0 mph 11.0 mph 60% 0.00 in
16:58 77.6 °F 62.6 °F 29.78 in SW 11.0 mph 12.0 mph 60% 0.00 in
17:03 77.5 °F 63.0 °F 29.78 in SW 6.0 mph 9.0 mph 61% 0.00 in
17:08 77.4 °F 62.9 °F 29.78 in WSW 5.0 mph 7.0 mph 61% 0.00 in
17:13 77.3 °F 63.3 °F 29.78 in West 5.0 mph 11.0 mph 62% 0.00 in
17:18 77.2 °F 63.6 °F 29.78 in SW 2.0 mph 8.0 mph 63% 0.00 in
17:23 77.1 °F 63.5 °F 29.78 in SSW 5.0 mph 11.0 mph 63% 0.00 in
17:28 77.1 °F 63.5 °F 29.78 in WSW 6.0 mph 8.0 mph 63% 0.00 in
17:33 77.0 °F 63.5 °F 29.78 in WNW 4.0 mph 11.0 mph 63% 0.00 in
17:38 77.0 °F 63.9 °F 29.78 in SSW 5.0 mph 10.0 mph 64% 0.00 in
17:43 76.8 °F 63.3 °F 29.78 in SW 6.0 mph 8.0 mph 63% 0.00 in
17:48 76.6 °F 63.1 °F 29.78 in SSW 5.0 mph 8.0 mph 63% 0.00 in
17:53 76.4 °F 62.4 °F 29.77 in SW 6.0 mph 7.0 mph 62% 0.00 in
17:58 76.3 °F 61.9 °F 29.77 in South 5.0 mph 10.0 mph 61% 0.00 in
18:03 76.1 °F 62.2 °F 29.77 in SSW 3.0 mph 7.0 mph 62% 0.00 in
18:09 76.1 °F 62.6 °F 29.77 in South 5.0 mph 8.0 mph 63% 0.00 in
18:13 75.9 °F 62.4 °F 29.77 in South 6.0 mph 9.0 mph 63% 0.00 in
18:18 75.9 °F 62.4 °F 29.76 in SSW 5.0 mph 10.0 mph 63% 0.00 in
18:24 75.8 °F 62.3 °F 29.76 in SSE 5.0 mph 7.0 mph 63% 0.00 in
18:29 75.7 °F 62.2 °F 29.75 in SSW 6.0 mph 10.0 mph 63% 0.00 in
18:34 75.8 °F 62.3 °F 29.76 in SSW 7.0 mph 12.0 mph 63% 0.00 in
18:39 75.7 °F 62.2 °F 29.75 in SE 12.0 mph 14.0 mph 63% 0.00 in
18:44 75.7 °F 61.8 °F 29.75 in South 12.0 mph 12.0 mph 62% 0.00 in
18:49 75.7 °F 61.8 °F 29.74 in SSE 9.0 mph 12.0 mph 62% 0.00 in
18:54 76.1 °F 62.2 °F 29.74 in SSE 5.0 mph 10.0 mph 62% 0.00 in
18:59 76.3 °F 61.9 °F 29.74 in South 9.0 mph 10.0 mph 61% 0.00 in
19:04 76.3 °F 61.9 °F 29.74 in SSW 3.0 mph 9.0 mph 61% 0.00 in
19:09 76.2 °F 61.8 °F 29.73 in South 6.0 mph 9.0 mph 61% 0.00 in
19:14 75.9 °F 61.5 °F 29.73 in SSE 10.0 mph 10.0 mph 61% 0.00 in
19:19 75.7 °F 61.3 °F 29.73 in SSE 13.0 mph 13.0 mph 61% 0.00 in
19:24 75.6 °F 61.2 °F 29.73 in SW 5.0 mph 10.0 mph 61% 0.00 in
19:29 75.6 °F 61.7 °F 29.74 in SSW 6.0 mph 8.0 mph 62% 0.00 in
19:34 76.0 °F 62.0 °F 29.74 in South 9.0 mph 9.0 mph 62% 0.00 in
19:39 76.4 °F 61.5 °F 29.74 in SSW 8.0 mph 11.0 mph 60% 0.00 in
19:44 76.8 °F 61.9 °F 29.75 in South 5.0 mph 9.0 mph 60% 0.00 in
19:49 77.0 °F 61.6 °F 29.74 in South 5.0 mph 9.0 mph 59% 0.00 in
19:54 77.0 °F 61.6 °F 29.74 in South 7.0 mph 8.0 mph 59% 0.00 in
19:59 76.7 °F 61.3 °F 29.74 in SE 3.0 mph 9.0 mph 59% 0.00 in
20:05 76.3 °F 61.4 °F 29.74 in SSE 4.0 mph 10.0 mph 60% 0.00 in
20:10 75.7 °F 61.3 °F 29.74 in South 4.0 mph 8.0 mph 61% 0.00 in
20:15 75.2 °F 60.8 °F 29.74 in SSE 9.0 mph 9.0 mph 61% 0.00 in
20:20 74.9 °F 61.0 °F 29.74 in SSE 4.0 mph 10.0 mph 62% 0.00 in
20:25 74.6 °F 60.7 °F 29.74 in South 6.0 mph 8.0 mph 62% 0.00 in
20:30 74.5 °F 60.6 °F 29.75 in South 6.0 mph 12.0 mph 62% 0.00 in
20:35 74.4 °F 60.5 °F 29.74 in SE 3.0 mph 8.0 mph 62% 0.00 in
20:40 74.1 °F 60.7 °F 29.75 in SE 4.0 mph 7.0 mph 63% 0.00 in
20:45 73.9 °F 60.5 °F 29.75 in South 3.0 mph 6.0 mph 63% 0.00 in
20:50 73.6 °F 60.7 °F 29.75 in SSW 4.0 mph 7.0 mph 64% 0.00 in
20:55 73.3 °F 60.4 °F 29.74 in South 5.0 mph 6.0 mph 64% 0.00 in
21:00 73.2 °F 60.3 °F 29.74 in SSE 7.0 mph 10.0 mph 64% 0.00 in
21:05 73.2 °F 60.3 °F 29.75 in SSW 4.0 mph 7.0 mph 64% 0.00 in
21:10 73.2 °F 59.9 °F 29.75 in SSW 5.0 mph 9.0 mph 63% 0.00 in
21:15 73.3 °F 59.5 °F 29.75 in WSW 5.0 mph 15.0 mph 62% 0.00 in
21:16 73.3 °F 59.5 °F 29.75 in SSW 6.0 mph 15.0 mph 62% 0.00 in
21:21 73.3 °F 59.0 °F 29.75 in South 5.0 mph 11.0 mph 61% 0.00 in
21:26 73.3 °F 58.6 °F 29.76 in SSW 4.0 mph 9.0 mph 60% 0.00 in
21:31 73.3 °F 58.6 °F 29.76 in South 4.0 mph 9.0 mph 60% 0.00 in
21:36 73.3 °F 58.1 °F 29.76 in SW 4.0 mph 9.0 mph 59% 0.00 in
21:41 73.4 °F 57.7 °F 29.76 in SSW 6.0 mph 14.0 mph 58% 0.00 in
21:46 73.6 °F 57.9 °F 29.76 in SW 5.0 mph 10.0 mph 58% 0.00 in
21:51 73.5 °F 57.8 °F 29.75 in SSW 5.0 mph 9.0 mph 58% 0.00 in
21:56 73.6 °F 57.9 °F 29.75 in South 7.0 mph 9.0 mph 58% 0.00 in
22:01 73.5 °F 57.8 °F 29.75 in South 3.0 mph 12.0 mph 58% 0.00 in
22:06 73.4 °F 57.7 °F 29.76 in South 4.0 mph 12.0 mph 58% 0.00 in
22:11 73.2 °F 57.5 °F 29.76 in SW 10.0 mph 14.0 mph 58% 0.00 in
22:16 73.2 °F 57.5 °F 29.76 in SSE 5.0 mph 13.0 mph 58% 0.00 in
22:21 73.0 °F 57.4 °F 29.76 in South 5.0 mph 11.0 mph 58% 0.00 in
22:26 72.9 °F 57.3 °F 29.76 in SSW 9.0 mph 10.0 mph 58% 0.00 in
22:31 72.9 °F 57.3 °F 29.77 in SSW 8.0 mph 8.0 mph 58% 0.00 in
22:36 72.9 °F 57.3 °F 29.77 in SSW 3.0 mph 11.0 mph 58% 0.00 in
22:41 72.6 °F 57.5 °F 29.77 in SSW 4.0 mph 8.0 mph 59% 0.00 in
22:47 72.4 °F 57.3 °F 29.77 in SSW 8.0 mph 9.0 mph 59% 0.00 in
22:52 72.2 °F 57.6 °F 29.77 in SSW 3.0 mph 9.0 mph 60% 0.00 in
22:57 72.0 °F 57.4 °F 29.77 in South 5.0 mph 10.0 mph 60% 0.00 in
23:02 72.0 °F 57.4 °F 29.77 in SSE 6.0 mph 10.0 mph 60% 0.00 in
23:07 71.8 °F 57.2 °F 29.77 in SW 8.0 mph 13.0 mph 60% 0.00 in
23:12 71.9 °F 57.3 °F 29.76 in SSE 10.0 mph 17.0 mph 60% 0.00 in
23:17 71.7 °F 57.1 °F 29.76 in SSE 5.0 mph 10.0 mph 60% 0.00 in
23:22 71.5 °F 57.4 °F 29.77 in WSW 7.0 mph 9.0 mph 61% 0.00 in
23:27 71.3 °F 57.2 °F 29.77 in SSE 5.0 mph 10.0 mph 61% 0.00 in
23:32 71.1 °F 57.0 °F 29.77 in SW 9.0 mph 12.0 mph 61% 0.00 in
23:37 71.0 °F 56.9 °F 29.78 in South 7.0 mph 13.0 mph 61% 0.00 in
23:42 70.7 °F 57.1 °F 29.78 in SE 4.0 mph 8.0 mph 62% 0.00 in
23:47 70.6 °F 57.0 °F 29.77 in SSW 8.0 mph 11.0 mph 62% 0.00 in
23:52 70.6 °F 57.0 °F 29.78 in WSW 9.0 mph 11.0 mph 62% 0.00 in
23:57 70.5 °F 57.3 °F 29.78 in SW 6.0 mph 9.0 mph 63% 0.00 in
Compliments of Weather Underground